This is the latest recevied weather packets stored in our database for station/object PY5TG-13. If no packets are shown the sender has not sent any weather packets the latest 10 day(s).
| Time | Temp. | Humidity | Pressure | Rain* | Wind** | Luminosity | Snow |
|---|---|---|---|---|---|---|---|
| 1788453614 | 23.33° C | 44% | 1012.8 hPa | 0 mm | - | 387 W/m² | - |
| 1788453013 | 22.22° C | 45% | 1013 hPa | 0 mm | - | 394 W/m² | - |
| 1788452413 | 22.22° C | 43% | 1013.1 hPa | 0 mm | - | 404 W/m² | - |
| 1788451872 | 22.22° C | 42% | 1013.2 hPa | 0 mm | - | 408 W/m² | - |
| 1788451214 | 22.22° C | 43% | 1013.4 hPa | 0 mm | - | 416 W/m² | - |
| 1788450611 | 22.78° C | 43% | 1013.3 hPa | 0 mm | - | 421 W/m² | - |
| 1788450012 | 21.67° C | 42% | 1013.5 hPa | 0 mm | - | 424 W/m² | - |
| 1788449471 | 22.22° C | 42% | 1013.7 hPa | 0 mm | - | 426 W/m² | - |
| 1788449407 | 21.67° C | 40% | 1013.7 hPa | 0 mm | - | 427 W/m² | - |
| 1788448813 | 21.67° C | 37% | 1013.9 hPa | 0 mm | - | 427 W/m² | - |
| 1788448274 | 21.67° C | 40% | 1014.1 hPa | 0 mm | - | 426 W/m² | - |
| 1788448208 | 21.11° C | 40% | 1014.1 hPa | 0 mm | - | 426 W/m² | - |
| 1788447614 | 21.11° C | 42% | 1014.3 hPa | 0 mm | - | 425 W/m² | - |
| 1788447015 | 21.67° C | 42% | 1014.4 hPa | 0 mm | - | 421 W/m² | - |
| 1788446412 | 21.11° C | 47% | 1014.8 hPa | 0 mm | - | 416 W/m² | - |
| 1788445814 | 20.56° C | 47% | 1015.1 hPa | 0 mm | - | 411 W/m² | - |
| 1788445220 | 20.56° C | 48% | 1015.1 hPa | 0 mm | - | 405 W/m² | - |
| 1788444613 | 20° C | 51% | 1015.2 hPa | 0 mm | - | 397 W/m² | - |
| 1788444012 | 20.56° C | 49% | 1015.3 hPa | 0 mm | - | 388 W/m² | - |
| 1788443413 | 20° C | 47% | 1015.4 hPa | 0 mm | - | 378 W/m² | - |
| 1788442813 | 19.44° C | 49% | 1015.3 hPa | 0 mm | - | 367 W/m² | - |
| 1788441613 | 19.44° C | 55% | 1015.5 hPa | 0 mm | - | 343 W/m² | - |
| 1788441014 | 18.33° C | 55% | 1015.7 hPa | 0 mm | - | 329 W/m² | - |
| 1788440411 | 18.33° C | 54% | 1015.6 hPa | 0 mm | - | 314 W/m² | - |
| 1788439812 | 17.78° C | 56% | 1016 hPa | 0 mm | - | 299 W/m² | - |
* Rain latest hour (hover to see other rain measurements)
** Current wind speed in m/s (hover to see current wind gust speed)